Location: Forestville
(38.4740°N, 122.8890°W)
Time: 14:30:51
(UTC-07:00)

Amateur Radio Satellites - All Passes

Search period start: 26 April 2017 14:00
Search period end: 27 April 2017 14:00
Location: Forestville, 38.4740°N, 122.8890°W

Satellite Date Start Highest point End Downlink Frequencies (MHz)
Time Altitude Azimuth
50 SAT 26 Apr 14:08:23 14:11:48 55° 286° (WNW) 14:15:11 437.505
YUBILEINY 26 Apr 14:08:33 14:11:31 12° 59° (ENE) 14:14:29 435.215
SPROUT 26 Apr 14:12:22 14:16:15 37° 288° (WNW) 14:20:09 437.525
ITAMSAT 1 26 Apr 14:14:34 14:16:32 12° 60° (ENE) 14:18:30 435.822/435.867
BEESAT 2 26 Apr 14:22:53 14:26:22 31° 114° (ESE) 14:29:55 435.950
BEESAT 3 26 Apr 14:23:59 14:27:54 87° 301° (WNW) 14:31:55 437.485
Gurwin Techsat 1B 26 Apr 14:24:26 14:29:45 82° 257° (WSW) 14:35:06 435.225
Oscar 19 26 Apr 14:25:00 14:29:55 46° 260° (W) 14:34:54 437.125/150
VELOX 1 26 Apr 14:45:02 14:48:00 18° 294° (WNW) 14:50:57 145.980
AO-7 26 Apr 14:57:01 15:04:40 43° 63° (ENE) 15:12:19 .
SO-50 26 Apr 14:57:06 15:00:32 21° 47° (NE) 15:03:57 436.795
ITUPSAT 1 26 Apr 14:57:28 14:59:23 12° 91° (E) 15:01:18 437.325
Tancredo 1 26 Apr 14:59:57 15:02:52 37° 33° (NNE) 15:05:47 437.200
UKube-1 26 Apr 15:03:57 15:07:57 38° 289° (WNW) 15:11:56 .
ISS 26 Apr 15:19:31 15:22:41 46° 35° (NE) 15:25:50 437.550
RS-15 26 Apr 15:24:17 15:35:18 36° 39° (NE) 15:45:53 29.354- 29.394
DX 1 26 Apr 15:38:20 15:40:14 13° 297° (WNW) 15:42:08 434.975-435.025
MOZHAYETS 4 26 Apr 15:47:51 15:51:22 21° 94° (E) 15:54:53
ITAMSAT 1 26 Apr 15:50:04 15:55:15 83° 256° (WSW) 16:00:28 435.822/435.867
BEESAT 26 Apr 15:52:23 15:57:00 49° 100° (E) 16:01:37 436.000
BEESAT 2 26 Apr 16:01:01 16:04:10 22° 311° (NW) 16:07:21 435.950
YUBILEINY 26 Apr 16:01:23 16:10:08 68° 80° (E) 16:18:52 435.215
ITUPSAT 1 26 Apr 16:32:51 16:37:35 63° 286° (WNW) 16:42:19 437.325
Tancredo 1 26 Apr 16:36:21 16:38:35 18° 229° (SW) 16:40:48 437.200
SO-50 26 Apr 16:36:54 16:41:10 44° 244° (WSW) 16:45:27 436.795
CUBESAT XI-V 26 Apr 16:39:44 16:41:47 13° 90° (E) 16:43:50 437.345
AO-7 26 Apr 16:49:42 16:57:22 41° 260° (W) 17:05:05 .
ISS 26 Apr 16:56:46 16:58:54 16° 230° (SW) 17:01:02 437.550
DOVE 4 26 Apr 17:15:23 17:19:21 22° 67° (ENE) 17:23:16 437.250
MOZHAYETS 4 26 Apr 17:24:24 17:28:34 34° 289° (WNW) 17:32:44
BEESAT 26 Apr 17:31:21 17:34:21 17° 296° (WNW) 17:37:22 436.000
KKS-1 26 Apr 17:36:51 17:41:12 53° 101° (E) 17:45:30 437.445
RS-15 26 Apr 17:36:53 17:49:04 78° 244° (WSW) 18:00:37 29.354- 29.394
XW-2D 26 Apr 17:41:09 17:43:37 17° 68° (ENE) 17:46:06 145.860 - 145.880
XW-2B 26 Apr 17:47:46 17:50:31 20° 69° (ENE) 17:53:16 145.730 - 145.750
KAITUO 1B 26 Apr 17:57:25 18:00:11 20° 70° (ENE) 18:02:57 145.475/437.950
LilacSat-2 26 Apr 17:58:08 18:01:22 28° 71° (ENE) 18:04:38 437.200
XW-2C 26 Apr 17:59:10 18:02:21 27° 71° (ENE) 18:05:33 145.795 - 145.815
YUBILEINY 26 Apr 17:59:35 18:06:05 24° 279° (W) 18:12:37 435.215
HO-68 26 Apr 18:03:37 18:07:23 15° 55° (NE) 18:11:10 435.675
STARS 26 Apr 18:08:46 18:13:01 50° 100° (E) 18:17:14 437.465
CUBESAT XI-V 26 Apr 18:14:51 18:19:30 60° 286° (WNW) 18:24:08 437.345
XW-2F 26 Apr 18:24:10 18:27:48 56° 75° (ENE) 18:31:28 145.980 - 146.000
NUDT-PHONESAT 26 Apr 18:35:42 18:39:19 64° 76° (ENE) 18:42:58 437.300
CUTE-I 26 Apr 18:36:43 18:42:03 77° 74° (ENE) 18:47:24 437.470
NO-84 26 Apr 18:38:32 18:40:08 12° 125° (SE) 18:41:40 435.350 FM
CUTE 1.7 + AOD 2 26 Apr 18:42:27 18:44:12 12° 65° (ENE) 18:45:58 437.475
JUGNU 26 Apr 18:46:37 18:48:31 12° 176° (S) 18:50:25 437.505
XW-2A 26 Apr 18:48:19 18:49:15 11° 67° (ENE) 18:50:11 145.665 - 145.685
DOVE 4 26 Apr 18:51:36 18:56:40 46° 262° (W) 19:01:43 437.250
SEEDS 26 Apr 19:02:09 19:04:10 13° 65° (ENE) 19:06:10 437.485
XW-2D 26 Apr 19:14:20 19:17:35 28° 263° (W) 19:20:51 145.860 - 145.880
KKS-1 26 Apr 19:15:01 19:17:16 14° 296° (WNW) 19:19:31 437.445
XW-2B 26 Apr 19:21:29 19:24:33 24° 264° (W) 19:27:38 145.730 - 145.750
O/OREOS (USA 219) 26 Apr 19:27:51 19:29:47 12° 54° (NE) 19:31:42 437.305
KAITUO 1B 26 Apr 19:31:08 19:34:04 22° 265° (W) 19:37:01 145.475/437.950
LilacSat-2 26 Apr 19:33:11 19:35:40 17° 266° (W) 19:38:10 437.200
XW-2C 26 Apr 19:34:04 19:36:33 17° 266° (W) 19:39:04 145.795 - 145.815
UWE-3 26 Apr 19:34:43 19:36:44 13° 66° (ENE) 19:38:44 435.000/436.395/437.385
CUBEBUG 2 26 Apr 19:46:00 19:49:48 30° 71° (ENE) 19:53:31 437.445
STARS 26 Apr 19:46:37 19:48:54 14° 296° (WNW) 19:51:11 437.465
HO-68 26 Apr 19:46:52 19:54:00 82° 73° (ENE) 20:01:12 435.675
RS-15 26 Apr 19:52:50 19:59:19 17° 264° (W) 20:05:40 29.354- 29.394
AAUSAT CUBESAT 2 26 Apr 20:07:53 20:11:38 34° 72° (ENE) 20:15:25 437.432
NO-84 26 Apr 20:13:39 20:17:23 64° 317° (NW) 20:20:47 435.350 FM
CUTE 1.7 + AOD 2 26 Apr 20:15:25 20:19:32 54° 260° (W) 20:23:42 437.475
XW-2A 26 Apr 20:18:32 20:21:39 35° 262° (W) 20:24:46 145.665 - 145.685
CUTE-I 26 Apr 20:20:40 20:22:36 12° 270° (W) 20:24:33 437.470
STRAND 1 26 Apr 20:28:05 20:33:09 62° 101° (ESE) 20:38:11 437.568
ZACube-1 26 Apr 20:28:10 20:31:47 29° 71° (ENE) 20:35:23 437.345
AO-73 26 Apr 20:34:54 20:38:35 31° 72° (ENE) 20:42:16 145.935
JUGNU 26 Apr 20:35:02 20:36:37 11° 186° (S) 20:38:12 437.505
SEEDS 26 Apr 20:35:20 20:39:23 49° 261° (W) 20:43:29 437.485
AO-85 26 Apr 20:38:37 20:39:32 11° 43° (NE) 20:40:28 145.980
M-CUBED/EXP-1 PRIME 26 Apr 20:47:03 20:51:13 73° 106° (ESE) 20:55:01 437.505
Oscar 11 26 Apr 20:49:58 20:53:57 39° 72° (ENE) 20:57:58 .
DELFI C3 26 Apr 20:53:51 20:55:04 11° 65° (ENE) 20:56:16 145.870
O/OREOS (USA 219) 26 Apr 21:05:08 21:09:42 69° 251° (WSW) 21:14:12 437.305
UWE-3 26 Apr 21:08:36 21:12:46 50° 260° (W) 21:16:52 435.000/436.395/437.385
CUBEBUG 2 26 Apr 21:23:03 21:26:24 21° 265° (W) 21:29:42 437.445
OBJECT BX 26 Apr 21:31:15 21:34:02 21° 70° (ENE) 21:36:49 145.990 - 145.960
HO-68 26 Apr 21:38:15 21:42:26 16° 269° (W) 21:46:40 435.675
AAUSAT CUBESAT 2 26 Apr 21:44:25 21:47:10 17° 267° (W) 21:49:57 437.432
NO-84 26 Apr 21:54:31 21:55:24 11° 333° (NNW) 21:56:17 435.350 FM
SRMSAT 26 Apr 21:57:16 21:59:33 12° 179° (S) 22:01:50 437.500
PRISM 26 Apr 22:00:40 22:03:18 16° 93° (E) 22:05:55 437.425
ZACube-1 26 Apr 22:04:55 22:08:04 20° 265° (W) 22:11:12 437.345
STRAND 1 26 Apr 22:08:51 22:11:47 15° 297° (WNW) 22:14:41 437.568
AO-73 26 Apr 22:11:53 22:14:51 19° 266° (W) 22:17:50 145.935
TIGRISAT 26 Apr 22:15:23 22:17:42 14° 93° (E) 22:20:00 435.000
AO-85 26 Apr 22:16:25 22:20:25 82° 238° (WSW) 22:24:36 145.980
DELFI C3 26 Apr 22:25:27 22:29:20 53° 260° (W) 22:33:16 145.870
Oscar 11 26 Apr 22:27:35 22:30:14 16° 267° (W) 22:32:55 .
LO-87 26 Apr 22:34:56 22:37:18 17° 69° (ENE) 22:39:41 145.935 - 145.965
UNISAT 6 26 Apr 22:35:33 22:39:12 26° 96° (E) 22:42:51 437.425
BEESAT 3 26 Apr 22:42:15 22:45:55 33° 53° (NE) 22:49:32 437.485
BEESAT 2 26 Apr 22:42:27 22:44:48 15° 45° (NE) 22:47:07 435.950
FO-29 26 Apr 22:48:09 22:52:42 29° 97° (E) 22:57:30 435.910
OBJECT BX 26 Apr 23:04:48 23:07:36 21° 265° (W) 23:10:25 145.990 - 145.960
SPROUT 26 Apr 23:30:56 23:32:21 11° 64° (ENE) 23:33:46 437.525
PRISM 26 Apr 23:34:53 23:38:42 36° 288° (WNW) 23:42:28 437.425
TIGRISAT 26 Apr 23:50:30 23:54:34 44° 287° (WNW) 23:58:42 435.000
ESTCUBE 1 26 Apr 23:50:44 23:55:13 80° 76° (ENE) 23:59:46 437.505/2401.250
VELOX 1 27 Apr 00:03:28 00:07:21 30° 70° (ENE) 00:11:14 145.980
LO-87 27 Apr 00:07:24 00:10:31 27° 263° (W) 00:13:40 145.935 - 145.965
UNISAT 6 27 Apr 00:12:20 00:15:47 24° 291° (WNW) 00:19:16 437.425
BEESAT 2 27 Apr 00:18:54 00:22:54 56° 242° (WSW) 00:26:50 435.950
AIST 2D 27 Apr 00:20:08 00:23:36 54° 100° (E) 00:27:04 435.315
BEESAT 3 27 Apr 00:20:20 00:23:16 20° 249° (WSW) 00:26:10 437.485
POLYITAN 1 27 Apr 00:21:01 00:24:36 27° 96° (E) 00:28:10 437.675
UKube-1 27 Apr 00:23:05 00:25:02 13° 64° (ENE) 00:26:58 .
QB50P2 27 Apr 00:27:26 00:31:17 35° 98° (E) 00:35:08 145.880/145.840
FO-29 27 Apr 00:33:15 00:37:47 31° 291° (WNW) 00:42:34 435.910
50 SAT 27 Apr 00:39:28 00:42:42 37° 73° (ENE) 00:45:57 437.505
BUGSAT 1 27 Apr 00:46:01 00:47:26 12° 92° (E) 00:48:50 437.445
NANOSAT C BR1 27 Apr 00:48:54 00:53:00 52° 100° (E) 00:57:04 145.865
DX 1 27 Apr 00:54:07 00:58:12 40° 72° (ENE) 01:02:20 434.975-435.025
SPROUT 27 Apr 01:03:30 01:07:43 61° 259° (W) 01:11:57 437.525
EO-79 27 Apr 01:16:53 01:21:02 64° 285° (WNW) 01:25:11 145.935-145.965
DUCHIFAT 1 27 Apr 01:18:29 01:22:40 76° 283° (WNW) 01:26:49 145.980
PCSat 27 Apr 01:26:45 01:29:46 15° 104° (ESE) 01:32:48 145.827
VELOX 1 27 Apr 01:40:14 01:43:46 23° 265° (W) 01:47:20 145.980
UKube-1 27 Apr 01:56:18 02:00:33 56° 259° (W) 02:04:49 .
POLYITAN 1 27 Apr 01:56:56 02:00:14 23° 291° (WNW) 02:03:32 437.675
ITUPSAT 1 27 Apr 02:03:05 02:05:21 13° 63° (ENE) 02:07:36 437.325
QB50P2 27 Apr 02:03:56 02:06:48 18° 293° (WNW) 02:09:41 145.880/145.840
50 SAT 27 Apr 02:14:56 02:15:47 11° 268° (W) 02:16:39 437.505
BUGSAT 1 27 Apr 02:19:10 02:23:02 46° 286° (WNW) 02:26:52 437.445
NANOSAT C BR1 27 Apr 02:26:26 02:28:14 13° 295° (WNW) 02:30:02 145.865
DX 1 27 Apr 02:31:46 02:34:32 16° 267° (W) 02:37:20 434.975-435.025
Oscar 19 27 Apr 02:37:40 02:42:52 71° 102° (ESE) 02:48:03 437.125/150
Gurwin Techsat 1B 27 Apr 02:42:16 02:47:21 44° 99° (E) 02:52:23 435.225
MOZHAYETS 4 27 Apr 02:48:53 02:51:54 18° 66° (ENE) 02:54:55
NO-84 27 Apr 02:49:18 02:51:57 31° 38° (NE) 02:54:32 435.350 FM
BEESAT 27 Apr 02:57:09 03:01:42 48° 72° (ENE) 03:06:17 436.000
AO-7 27 Apr 03:03:18 03:06:19 12° 89° (E) 03:09:21 .
PCSat 27 Apr 03:07:09 03:12:32 66° 300° (WNW) 03:17:57 145.827
YUBILEINY 27 Apr 03:09:35 03:13:22 14° 76° (ENE) 03:17:10 435.215
ITUPSAT 1 27 Apr 03:37:54 03:42:36 64° 258° (WSW) 03:47:21 437.325
CUBESAT XI-V 27 Apr 03:42:43 03:44:07 11° 62° (ENE) 03:45:30 437.345
ITAMSAT 1 27 Apr 04:04:34 04:09:24 39° 99° (E) 04:14:11 435.822/435.867
Oscar 19 27 Apr 04:18:52 04:21:33 14° 298° (WNW) 04:24:14 437.125/150
Gurwin Techsat 1B 27 Apr 04:22:56 04:26:57 22° 295° (WNW) 04:30:59 435.225
MOZHAYETS 4 27 Apr 04:24:24 04:28:42 42° 261° (W) 04:33:02
NO-84 27 Apr 04:27:37 04:29:12 14° 235° (SW) 04:30:45 435.350 FM
KKS-1 27 Apr 04:33:13 04:37:25 41° 72° (ENE) 04:41:37 437.445
BEESAT 27 Apr 04:36:50 04:39:43 16° 267° (W) 04:42:37 436.000
AO-7 27 Apr 04:51:56 05:00:17 75° 106° (ESE) 05:08:36 .
PCSat 27 Apr 04:55:21 04:56:59 11° 320° (NW) 04:58:38 145.827
YUBILEINY 27 Apr 04:59:59 05:08:40 81° 94° (E) 05:17:23 435.215
STARS 27 Apr 05:03:44 05:07:48 37° 71° (ENE) 05:11:52 437.465
CUBESAT XI-V 27 Apr 05:16:12 05:20:49 74° 258° (WSW) 05:25:30 437.345
ITAMSAT 1 27 Apr 05:44:31 05:48:36 24° 294° (WNW) 05:52:41 435.822/435.867
RS-15 27 Apr 05:50:07 05:57:32 19° 97° (E) 06:05:04 29.354- 29.394
KKS-1 27 Apr 06:11:13 06:14:07 17° 267° (W) 06:17:02 437.445
STARS 27 Apr 06:41:13 06:44:14 18° 266° (W) 06:47:16 437.465
AO-7 27 Apr 06:45:57 06:52:14 25° 304° (NW) 06:58:33 .
XW-2D 27 Apr 06:47:50 06:51:13 29° 97° (E) 06:54:35 145.860 - 145.880
SO-50 27 Apr 06:49:03 06:53:40 83° 120° (ESE) 06:58:16 436.795
DOVE 4 27 Apr 06:52:24 06:56:55 56° 100° (E) 07:01:09 437.250
XW-2B 27 Apr 06:54:41 06:58:12 34° 98° (E) 07:01:42 145.730 - 145.750
CUTE-I 27 Apr 06:55:33 07:00:21 34° 97° (E) 07:05:07 437.470
YUBILEINY 27 Apr 07:00:29 07:06:28 20° 295° (WNW) 07:12:31 435.215
KAITUO 1B 27 Apr 07:02:53 07:06:22 34° 98° (E) 07:09:51 145.475/437.950
LilacSat-2 27 Apr 07:06:09 07:09:55 53° 100° (E) 07:13:41 437.200
XW-2C 27 Apr 07:06:28 07:10:11 50° 100° (E) 07:13:54 145.795 - 145.815
HO-68 27 Apr 07:18:16 07:22:26 16° 91° (E) 07:26:33 435.675
M-CUBED/EXP-1 PRIME 27 Apr 07:30:09 07:34:43 72° 70° (ENE) 07:39:24 437.505
XW-2F 27 Apr 07:31:28 07:35:16 77° 283° (WNW) 07:39:04 145.980 - 146.000
Tancredo 1 27 Apr 07:33:19 07:35:42 20° 132° (SE) 07:38:06 437.200
NUDT-PHONESAT 27 Apr 07:41:09 07:44:52 71° 284° (WNW) 07:48:34 437.300
STRAND 1 27 Apr 07:42:22 07:47:28 77° 74° (ENE) 07:52:34 437.568
XW-2A 27 Apr 07:42:49 07:44:29 13° 93° (E) 07:46:09 145.665 - 145.685
RS-15 27 Apr 07:56:01 08:08:01 82° 117° (ESE) 08:20:26 29.354- 29.394
ISS 27 Apr 07:58:39 08:01:33 30° 134° (SE) 08:04:28 437.550
CUTE 1.7 + AOD 2 27 Apr 08:01:52 08:05:34 28° 96° (E) 08:09:14 437.475
SEEDS 27 Apr 08:20:37 08:24:21 29° 96° (E) 08:28:02 437.485
XW-2D 27 Apr 08:22:37 08:25:10 17° 292° (WNW) 08:27:43 145.860 - 145.880
XW-2B 27 Apr 08:29:52 08:32:04 15° 293° (WNW) 08:34:18 145.730 - 145.750
DOVE 4 27 Apr 08:31:54 08:34:01 13° 297° (WNW) 08:36:05 437.250
SO-50 27 Apr 08:32:23 08:34:42 14° 318° (NW) 08:37:01 436.795
CUTE-I 27 Apr 08:35:46 08:40:15 29° 293° (WNW) 08:44:43 437.470
KAITUO 1B 27 Apr 08:37:56 08:40:04 15° 292° (WNW) 08:42:12 145.475/437.950
LilacSat-2 27 Apr 08:42:59 08:43:43 10° 295° (WNW) 08:44:27 437.200
XW-2C 27 Apr 08:43:00 08:43:55 11° 295° (WNW) 08:44:50 145.795 - 145.815
PRISM 27 Apr 08:50:29 08:51:18 10° 63° (ENE) 08:52:06 437.425
UWE-3 27 Apr 08:59:21 09:03:10 32° 97° (E) 09:07:01 435.000/436.395/437.385
FO-29 27 Apr 09:02:32 09:04:35 12° 61° (ENE) 09:06:33 435.910
HO-68 27 Apr 09:03:39 09:10:52 84° 287° (WNW) 09:18:04 435.675
M-CUBED/EXP-1 PRIME 27 Apr 09:08:14 09:09:33 11° 265° (W) 09:10:53 437.505
Tancredo 1 27 Apr 09:08:35 09:11:27 34° 327° (NNW) 09:14:20 437.200
CUBEBUG 2 27 Apr 09:13:43 09:17:54 85° 103° (ESE) 09:22:09 437.445
TIGRISAT 27 Apr 09:14:05 09:15:25 11° 64° (ENE) 09:16:44 435.000
XW-2A 27 Apr 09:14:23 09:17:17 27° 288° (WNW) 09:20:11 145.665 - 145.685
STRAND 1 27 Apr 09:25:47 09:27:09 11° 270° (W) 09:28:32 437.568
AAUSAT CUBESAT 2 27 Apr 09:26:07 09:30:20 81° 102° (ESE) 09:34:31 437.432
UNISAT 6 27 Apr 09:33:25 09:36:39 20° 68° (ENE) 09:39:50 437.425
ISS 27 Apr 09:35:09 09:38:02 28° 330° (NNW) 09:40:55 437.550
CUTE 1.7 + AOD 2 27 Apr 09:37:50 09:41:14 23° 291° (WNW) 09:44:38 437.475
O/OREOS (USA 219) 27 Apr 09:38:25 09:41:15 16° 99° (E) 09:44:05 437.305
ZACube-1 27 Apr 09:52:54 09:57:08 80° 102° (ESE) 10:01:27 437.345
SEEDS 27 Apr 09:56:34 09:59:51 22° 291° (WNW) 10:03:08 437.485
AO-73 27 Apr 09:59:20 10:03:35 85° 105° (ESE) 10:07:54 145.935
DELFI C3 27 Apr 10:04:32 10:07:32 20° 94° (E) 10:10:30 145.870
RS-15 27 Apr 10:11:16 10:22:01 35° 323° (NW) 10:33:00 29.354- 29.394
Oscar 11 27 Apr 10:14:04 10:18:26 80° 284° (WNW) 10:22:47 .
PCSat 27 Apr 10:15:25 10:17:29 12° 41° (NE) 10:19:32 145.827
PRISM 27 Apr 10:21:53 10:25:59 64° 258° (WSW) 10:30:09 437.425
OBJECT BX 27 Apr 10:34:11 10:37:31 32° 98° (E) 10:40:50 145.990 - 145.960
UWE-3 27 Apr 10:36:24 10:39:23 19° 292° (WNW) 10:42:24 435.000/436.395/437.385
FO-29 27 Apr 10:42:36 10:49:02 87° 72° (ENE) 10:54:43 435.910
TIGRISAT 27 Apr 10:47:13 10:51:34 63° 259° (WSW) 10:55:51 435.000
HO-68 27 Apr 10:53:35 10:57:32 16° 305° (NW) 11:01:27 435.675
AIST 2D 27 Apr 10:54:12 10:56:19 16° 69° (ENE) 10:58:27 435.315
UNISAT 6 27 Apr 11:09:11 11:13:08 32° 263° (W) 11:17:03 437.425
POLYITAN 1 27 Apr 11:12:48 11:15:36 18° 67° (ENE) 11:18:25 437.675
O/OREOS (USA 219) 27 Apr 11:15:51 11:20:14 44° 295° (WNW) 11:24:39 437.305
QB50P2 27 Apr 11:18:54 11:22:11 22° 69° (ENE) 11:25:28 145.880/145.840
LO-87 27 Apr 11:35:45 11:38:38 23° 96° (E) 11:41:30 145.935 - 145.965
DELFI C3 27 Apr 11:38:52 11:42:17 27° 289° (WNW) 11:45:39 145.870
NANOSAT C BR1 27 Apr 11:39:30 11:43:13 31° 71° (ENE) 11:46:57 145.865
ESTCUBE 1 27 Apr 11:45:32 11:48:45 19° 94° (E) 11:51:58 437.505/2401.250
PCSat 27 Apr 11:56:25 12:01:51 72° 61° (ENE) 12:07:15 145.827
EO-79 27 Apr 12:07:17 12:11:29 75° 75° (ENE) 12:15:41 145.935-145.965
DUCHIFAT 1 27 Apr 12:08:21 12:12:30 62° 74° (ENE) 12:16:38 145.980
OBJECT BX 27 Apr 12:08:52 12:10:54 14° 293° (WNW) 12:12:56 145.990 - 145.960
Oscar 19 27 Apr 12:18:36 12:19:35 10° 59° (ENE) 12:20:34 437.125/150
AIST 2D 27 Apr 12:26:22 12:29:18 26° 264° (W) 12:32:16 435.315
AO-85 27 Apr 12:29:23 12:33:31 44° 117° (ESE) 12:37:26 145.980
RS-15 27 Apr 12:32:05 12:40:03 19° 357° (N) 12:47:58 29.354- 29.394
FO-29 27 Apr 12:32:28 12:34:31 12° 269° (W) 12:36:31 435.910
POLYITAN 1 27 Apr 12:47:13 12:51:06 36° 262° (W) 12:55:00 437.675
SPROUT 27 Apr 12:51:03 12:54:30 24° 96° (E) 12:57:55 437.525
QB50P2 27 Apr 12:54:11 12:57:49 28° 263° (W) 13:01:28 145.880/145.840
BUGSAT 1 27 Apr 13:06:40 13:10:49 88° 257° (WSW) 13:14:57 437.445
LO-87 27 Apr 13:09:24 13:11:55 18° 291° (WNW) 13:14:24 145.935 - 145.965
NANOSAT C BR1 27 Apr 13:15:55 13:18:57 19° 266° (W) 13:22:00 145.865
ESTCUBE 1 27 Apr 13:21:28 13:25:39 37° 289° (WNW) 13:29:50 437.505/2401.250
VELOX 1 27 Apr 13:30:27 13:34:54 74° 102° (ESE) 13:39:17 145.980
50 SAT 27 Apr 13:36:52 13:40:15 48° 100° (E) 13:43:36 437.505
PCSat 27 Apr 13:41:52 13:44:34 14° 257° (WSW) 13:47:16 145.827
UKube-1 27 Apr 13:45:04 13:48:40 25° 96° (E) 13:52:14 .
